默认 日期 大小 文件数 浏览量 最新下载 xml
of -磁力链接相关资源由用户搜索指令自动获取,结果来源于网络,本站不存储任何资料,亦不承担任何责任,请于24小时内删除,搜索到1411791个磁力,显示前4000条数据,用时2546ms。
    ... Nine-Nine S06E05 A Tale of Two Bandits 1080p DTS-HD ... Nine-Nine S06E05 A Tale of Two Bandits 1080p DTS-HD ...
创建时间: 2026-04-23 08:12:52 大小:3.87 GB 文件数量:3 热度:0
    {"韩国全能肥臀OL淫妻少妇「neno_xex」OF微剧情私拍,舔屁眼,户外露出调教,3P多人性爱.mp4": 44868926}
创建时间: 2026-04-23 08:12:37 大小:42.79 MB 文件数量:1 热度:0
    {"Pursuit.of.Jade.S01E22.2026.2160p.WEB- ... .1-BlackTV.mkv": 4223119967, "Pursuit.of.Jade.S01E23.2026.2160p.WEB ...
创建时间: 2026-04-23 08:12:26 大小:7.02 GB 文件数量:5 热度:0
    {"日本美乳花季萝莉「Saku J」OF大尺度纯爱私拍 紧致肌肤饱满乳房肥厚鲍鱼肉欲满满.mp4": 530563565}
创建时间: 2026-04-23 08:09:11 大小:505.98 MB 文件数量:1 热度:0
    ... html.gz": 1271210, "the-art-of-tangled_202302_meta.xml": 3481, "The ... of Tangled_page_numbers.json": 23110, "the-art-of-tangled_202302_meta.sqlite": 28672, "The Art of ... Tangled_hocr_pageindex.json.gz": 1569, "The Art of Tangled_hocr_searchtext.txt ...
创建时间: 2026-04-23 08:07:20 大小:148.34 MB 文件数量:16 热度:0
    ... , Christopher Michael Jarrett - The Order of Architects {Kevin T. Collins}.cue ... , Christopher Michael Jarrett - The Order of Architects {Kevin T. Collins}.jpg ... , Christopher Michael Jarrett - The Order of Architects {Kevin T. Collins}.m4b ...
创建时间: 2026-04-23 08:02:48 大小:541.81 MB 文件数量:3 热度:0
    ... Remain.mp3": 15272915, "8. Wounds of Ichor.mp3": 27351937, "5. Suffer ... Deceit.mp3": 15335615, "1. Existence of Omission.mp3": 19414905, "7. Servitude ... Origin.mp3": 15512215, "2. Consumption of Decadence.mp3": 13942780, "6. In ...
创建时间: 2026-04-22 19:59:35 大小:129.89 MB 文件数量:8 热度:0
    {"Deception.of.the.Novelist.2019.BluRay.1080p. ... .2Audio.-SSDSSE.mkv": 5194530067, "Deception.of.the.Novelist.2019.BluRay.1080p ...
创建时间: 2026-04-22 19:59:34 大小:4.84 GB 文件数量:5 热度:0
    ... ).LostFilm": {"Monarch.Legacy.of.Monsters.S01E01.rus.LostFilm. ... 770824192, "Monarch.Legacy.of.Monsters.S01E02.rus.LostFilm.TV ... avi": 694460416}, "Monarch.Legacy.of.Monsters.(Season 02).LostFilm": ... {"Monarch.Legacy.of.Monsters.S02E01.rus.LostFilm. ...
创建时间: 2026-04-22 19:51:45 大小:11.46 GB 文件数量:17 热度:0
    {"【年度新档】台湾超强炮王「宇宙列车」「spacetrain7654」OF约炮网黄、良家、学生性爱实录.mp4": 80517897}
创建时间: 2026-04-22 19:48:41 大小:76.79 MB 文件数量:1 热度:0
    {"Tales.of.Divine.Quests.S01E07.2026.2160p. ...
创建时间: 2026-04-22 19:44:50 大小:1.45 GB 文件数量:4 热度:0
    {" The Art Of Pussy Worship 6 720p.mp4": 3542387151, "Torrent Downloaded From XXXClub.to .nfo": 34}
创建时间: 2026-04-22 19:44:41 大小:3.3 GB 文件数量:2 热度:0
    {"The Book of Eli 2010 Ai Upscaled 2160p 60fps Marjenbo .mkv": 26817309521}
创建时间: 2026-04-22 19:44:38 大小:24.98 GB 文件数量:1 热度:0
    ... 2019948167, "Monarch.Legacy.of.Monsters.S02E02.1080p.Ru.Ultradox ... 1673868437, "Monarch.Legacy.of.Monsters.S02E03.1080p.Ru.Ultradox ... 1765753810, "Monarch.Legacy.of.Monsters.S02E04.1080p.Ru.Ultradox ... 1715672970, "Monarch.Legacy.of.Monsters.S02E05.1080p.Ru. ...
创建时间: 2026-04-22 19:44:27 大小:13.13 GB 文件数量:8 热度:0
    {"Torrent Downloaded From UIndex.org .txt": 127, "The Boys S05E04 King of Hell 2160p AMZN WEB-DL DDP5 1 Atmos DV HDR H 265-FLUX.mkv": 7147762829, "The Boys S05E04 King of Hell 2160p AMZN WEB-DL DDP5 1 Atmos DV HDR H 265-FLUX.mkv.nfo": 1457}
创建时间: 2026-04-22 19:44:05 大小:6.66 GB 文件数量:3 热度:0
    ... .org .txt": 127, "Monarch Legacy of Monsters S02E07 String Theory 720p ... -playWEB.mkv": 1416365828, "Monarch Legacy of Monsters S02E07 String Theory 720p ...
创建时间: 2026-04-22 19:42:30 大小:1.32 GB 文件数量:3 热度:0
    {"Torrent Downloaded From UIndex.org .txt": 127, "Outlander S08E07 Evidence of Things Not Seen 1080p AMZN WEB-DL DDP5 1 H 264-FLUX.mkv": 3970433062, "Outlander S08E07 Evidence of Things Not Seen 1080p AMZN WEB-DL DDP5 1 H 264-FLUX.mkv.nfo": 932}
创建时间: 2026-04-22 19:40:34 大小:3.7 GB 文件数量:3 热度:0
    ... Eyes.flac": 25888652, "04. Caravan Of Love.flac": 24266803, "19. Don ...
创建时间: 2026-04-22 19:37:17 大小:517.99 MB 文件数量:23 热度:0
    ... .txt": 127, "Origins.The.Journey.of.Humankind.S01E06.1080p.WEB.H264 ... .mkv": 2160237330, "origins.the.journey.of.humankind.s01e06.1080p.web.h264 ...
创建时间: 2026-04-22 19:30:01 大小:2.01 GB 文件数量:7 热度:0
    {"Lawho.Gouranger.Naam.Rey.2025.1080p.AMZN.WEB-DL.Bangla.DDP2.0.H.265-DUDU.mkv": 1357828035}
创建时间: 2026-04-22 19:29:06 大小:1.26 GB 文件数量:1 热度:0